ST_ANTHONY_LWIS current weather conditions

sailwx.info

Last reported at 2020-Jan-21 13:00 UTC.
Time now 2020-Jan-21 13:36 UTC

Location: N 51°23' W 056°06'.
View on Google Maps.

See reports from other nearby stations

  
Tides and Currents Weather Stations Pressure Air Temp Water Temp Dewpoint Dewpoint Depression Visibility Wind Speed Wind Dir Waves Ship Positions
date/time (UTC)wind fromknots sea level pressurealtimeterstation pressurevisibilityair tempwater tempwave heightnotes
2020-Jan-21 13:00
2020-Jan-21 12:00 240 11 7.8-16.0
2020-Jan-21 11:00 240 6 7.8-16.0
2020-Jan-21 10:54 240 6 7.8-16.0
2020-Jan-21 10:46 240 6 7.8-16.0 Light snow.
2020-Jan-21 10:27 240 5 7.8-16.0 Light snow.
2020-Jan-21 10:22 240 5 7.8-16.0 Light snow.
2020-Jan-21 10:21 240 5 7.8-16.0
2020-Jan-21 10:00 7.8-17.0 Light snow.
2020-Jan-21 09:18 220 4 6.1-17.0 Light snow.
2020-Jan-21 09:00 210 4 2.6-17.0 Light snow.
2020-Jan-21 08:44 220 5 4.3-17.0 Light snow.
2020-Jan-21 08:33 240 4 5.2-18.0 Light snow.
2020-Jan-21 08:00 230 6 3.5-18.0 Light snow.
2020-Jan-21 07:25 230 6 4.3-18.0 Light snow.
2020-Jan-21 07:16 220 6 5.2-18.0 Light snow.
2020-Jan-21 07:12 230 5 4.3-18.0 Light snow.
2020-Jan-21 07:01 220 4 5.2-18.0 Light snow.
2020-Jan-21 07:00 220 4 4.3-18.0 Light snow.
2020-Jan-21 06:51 220 1 4.3-19.0 Light snow.
2020-Jan-21 06:27 200 4 7.8-19.0 Light snow.
2020-Jan-21 06:00 7.8-20.0
2020-Jan-21 05:00 7.8-20.0
2020-Jan-21 04:00 280 5 7.8-19.0
2020-Jan-21 03:00 230 8 7.8-19.0
2020-Jan-21 02:00 220 8 7.8-17.0
2020-Jan-21 01:00 250 6 7.8-17.0
2020-Jan-21 00:00 250 6 7.8-17.0
2020-Jan-20 23:00 260 6 7.8-17.0
2020-Jan-20 22:00 250 6 7.8-17.0
2020-Jan-20 21:00 240 6 7.8-14.0
2020-Jan-20 20:00 260 8 7.8-13.0
2020-Jan-20 19:00 250 8 7.8-11.0
2020-Jan-20 18:00 270 8 7.8-11.0
2020-Jan-20 17:00 260 11 7.8-11.0
2020-Jan-20 16:00 280 7 7.8-10.0
2020-Jan-20 15:00 320 7 7.8-11.0
2020-Jan-20 14:41 320 13 7.8-11.0
2020-Jan-20 14:00 320 11 7.8-11.0 Light snow.
2020-Jan-20 13:56 310 11 gusting 15 5.2-12.0 Light snow.
2020-Jan-20 13:55 320 11 gusting 17 3.5-12.0 Light snow.
2020-Jan-20 13:54 320 11 gusting 17 1.7-11.0 Light snow.
2020-Jan-20 13:47 310 13 1.5-11.0 Light snow.
2020-Jan-20 13:45 310 13 2.2-11.0 Light snow.
2020-Jan-20 13:00 310 8 7.8-12.0 Light snow.
2020-Jan-20 12:45 330 7 7.8-12.0 Light snow.
2020-Jan-20 12:41 330 7 7.8-12.0 Light snow.
2020-Jan-20 12:00 340 7 7.8-12.0 Light snow.
2020-Jan-20 11:58 340 7 7.8-12.0 Light snow.
2020-Jan-20 11:00 350 12 6.1-12.0 Light snow.
2020-Jan-20 10:00 360 13 gusting 18 7.8-12.0 Light snow.
2020-Jan-20 09:31 360 13 gusting 19 5.2-12.0 Light snow.
2020-Jan-20 09:16 360 13 gusting 18 4.3-12.0 Light snow.
2020-Jan-20 09:08 360 13 gusting 19 5.2-12.0 Light snow.
2020-Jan-20 09:00 360 13 3.5-12.0 Light snow.
2020-Jan-20 08:11 010 13 gusting 19 2.6-12.0 Light snow.
2020-Jan-20 08:00 010 14 1.7-12.0 Light snow.
2020-Jan-20 07:52 010 13 2.2-12.0 Light snow.
2020-Jan-20 07:36 360 13 4.3-12.0 Light snow.
2020-Jan-20 07:00 360 13 7.8-12.0 Light snow.
2020-Jan-20 06:41 360 9 5.2-12.0 Light snow.
2020-Jan-20 06:00 360 8 3.5-13.0 Light snow.
2020-Jan-20 05:50 360 8 4.3-14.0 Light snow.
2020-Jan-20 05:00 360 6 7.8-15.0 Light snow.
2020-Jan-20 04:00 020 6 7.8-16.0
2020-Jan-20 03:00 010 6 7.8-18.0
2020-Jan-20 02:00 030 6 7.8-20.0
2020-Jan-20 01:00 030 5 7.8-19.0
2020-Jan-20 00:00 7.8-17.0
2020-Jan-19 23:00 180 6 7.8-15.0
2020-Jan-19 22:00 200 6 7.8-14.0
2020-Jan-19 21:00 190 6 7.8-15.0
2020-Jan-19 20:00 190 4 7.8-15.0
2020-Jan-19 19:00 230 4 7.8-14.0
2020-Jan-19 18:00 240 9 7.8-15.0
2020-Jan-19 17:00 250 9 gusting 15 7.8-15.0
2020-Jan-19 16:00 240 12 gusting 19 7.8-16.0
2020-Jan-19 15:00 240 13 gusting 18 7.8-16.0
2020-Jan-19 14:00 240 12 7.8-17.0
2020-Jan-19 13:00 250 12 gusting 17 7.8-18.0